Location: Newark
(45.9456°N, 15.4064°E)
Time: 20:12:04
(UTC+00:00)

Vanguard 3 - Pass Details

Date: 25 January 2020
Orbit: 508 x 3263 km, 33.3° (Epoch: 17 February)

Event Time Altitude Azimuth Distance (km) Brightness Sun altitude
Rises 18:05:41 0° 251° (WSW) 7,186 13.3 -22.9°
Reaches altitude 10° 18:10:41 10° 247° (WSW) 6,201 12.6 -23.8°
Maximum altitude 18:29:13 52° 180° (S) 3,296 10.1 -27.0°
Enters shadow 18:36:27 33° 126° (SE) 3,545 9.9 -28.3°
Drops below altitude 10° 18:42:23 10° 109° (ESE) 4,543 - -29.3°
Sets 18:45:25 0° 104° (ESE) 5,222 - -29.8°
